Find Starlink 4809

NORAD ID: 53857 Int'l Des: 2022-114 Owner: SPXS Country: US Constellation: starlink operational
LEOCIRCULAR

Live Position

Loading 3D Globe...

About Starlink 4809

Description loading...

Upcoming Passes

Passes for default location (London). Set your location on the main map for personalized predictions.

Altitude History

Loading altitude history...

Two-Line Element Set

1 53857U 22114AR 26106.75161925 -.00000349 00000-0 -38207-5 0 9992
2 53857 53.2169 122.8319 0001407 78.1220 281.9930 15.08837853198721
Epoch: Apr 16, 2026 • Age: 22 hours

Current Status

Altitude 543.5 km
Velocity 7.59 km/s
Sub-Earth Point -13.53°S, 19.26°E
Launch Date Sep 19, 2022
Age 3.5 years
Type internet

Technical Details

Classification Payload
Mass 305.00 kg
Dry Mass 290.00 kg
Total Mass 305.00 kg
Length 0.20 m
Diameter 2.80 m
Span 9.00 m
Shape Box + pan
Manufacturer SPXS
Bus Type Starlink
Phase Status In Orbit
Owner/State SPXS/US

Most Searched